Arklow Rock — PBZM — position and weather

sailwx.info

Track history (hours):
 
Tides and Currents Weather Stations Pressure Air Temp Water Temp Dewpoint Dewpoint Depression Visibility Wind Speed Wind Dir Waves Ship Positions

Arklow Rock

Last reported at 2014-Aug-22 21:33 UTC. Time now 2014-Aug-22 21:39 UTC.
Position N 51°38' E 001°44'.

Length 90 m; draft 5.9 m.

Type: Cargo ship. MMSI: 246002000.

Date/timePositionNaut miles runAvg speedWind from/ knotsBaromVisibWave heightAir tempDewpointWater temp
2014-Aug-22 21:33N 51°38' E 001°44'1111.5
2014-Aug-22 20:33N 51°49' E 001°42'10 9.7
2014-Aug-22 19:33N 51°55' E 001°30'8 8.5
2014-Aug-22 18:34N 51°58' E 001°17'6 6.3
2014-Aug-22 17:33N 52°02' E 001°09'0 0.0
2014-Aug-22 16:33N 52°02' E 001°09'0 0.0
2014-Aug-22 15:33N 52°02' E 001°09'0 0.0
2014-Aug-22 14:33N 52°02' E 001°09'0 0.0
2014-Aug-22 13:33N 52°02' E 001°09'0 0.0
2014-Aug-22 12:33N 52°02' E 001°09'0 0.0
2014-Aug-22 11:33N 52°02' E 001°09'0 0.0
2014-Aug-22 10:33N 52°02' E 001°09'0 0.0
2014-Aug-22 09:33N 52°02' E 001°09'0 0.0
2014-Aug-22 08:33N 52°02' E 001°09'0 0.0
2014-Aug-22 07:33N 52°02' E 001°09'0 0.0
2014-Aug-22 06:32N 52°02' E 001°09'0 0.0
2014-Aug-22 05:32N 52°02' E 001°09'0 0.0
2014-Aug-22 04:32N 52°02' E 001°09'0 0.0
2014-Aug-22 03:32N 52°02' E 001°09'0 0.0
2014-Aug-22 02:32N 52°02' E 001°09'0 0.0
2014-Aug-22 01:26N 52°02' E 001°09'0 0.0
2014-Aug-22 00:32N 52°02' E 001°09'0 0.0
2014-Aug-21 23:32N 52°02' E 001°09'0 0.0
2014-Aug-21 22:29N 52°02' E 001°09'0 0.0
2014-Aug-21 21:29N 52°02' E 001°09'0 0.0
2014-Aug-21 20:32N 52°02' E 001°09'0 0.0
2014-Aug-21 19:29N 52°02' E 001°09'0 0.0
2014-Aug-21 18:32N 52°02' E 001°09'0 0.0
2014-Aug-21 17:32N 52°02' E 001°09'0 0.0
2014-Aug-21 16:32N 52°02' E 001°09'0 0.0
2014-Aug-21 15:32N 52°02' E 001°09'0 0.0
2014-Aug-21 14:32N 52°02' E 001°09'0 0.0
2014-Aug-21 13:29N 52°02' E 001°09'0 0.0
2014-Aug-21 12:32N 52°02' E 001°09'0 0.0
2014-Aug-21 11:32N 52°02' E 001°09'0 0.0
2014-Aug-21 10:32N 52°02' E 001°09'0 0.0
2014-Aug-21 09:32N 52°02' E 001°10'0 0.0
2014-Aug-21 08:29N 52°02' E 001°10'0 0.0
2014-Aug-21 07:29N 52°02' E 001°10'0 0.0
2014-Aug-21 06:32N 52°02' E 001°09'0 0.0
2014-Aug-21 05:32N 52°02' E 001°10'0 0.0
2014-Aug-21 04:32N 52°02' E 001°10'0 0.0
2014-Aug-21 03:32N 52°02' E 001°09'0 0.0
2014-Aug-21 02:32N 52°02' E 001°10'0 0.0
2014-Aug-21 01:32N 52°02' E 001°09'3 2.8
2014-Aug-21 00:33N 52°00' E 001°12'8 7.6
2014-Aug-20 23:33N 51°56' E 001°23'7 7.0
2014-Aug-20 22:33N 51°55' E 001°34'3 3.4
2014-Aug-20 21:33N 51°52' E 001°37'4 4.2
2014-Aug-20 20:33N 51°51' E 001°44'9 8.7
2014-Aug-20 19:33N 51°43' E 001°48'1111.1
2014-Aug-20 18:33N 51°32' E 001°46'1111.5
2014-Aug-20 17:33N 51°21' E 001°41'1010.4
2014-Aug-20 16:34N 51°11' E 001°37'6 6.1
2014-Aug-20 15:33N 51°05' E 001°37'4310.7
2014-Aug-20 11:33N 50°31' E 000°54'1211.8
2014-Aug-20 10:33N 50°28' E 000°36'1211.7
2014-Aug-20 09:32N 50°25' E 000°18'4811.1
2014-Aug-20 05:12N 50°30' W 000°57'812.6
2014-Aug-20 04:33N 50°29' W 001°10'208 7.6
2014-Aug-19 01:03N 52°17' W 005°55'611.0
2014-Aug-19 00:32N 52°22' W 005°56'1111.5
2014-Aug-18 23:33N 52°34' W 005°59'48 2.5
2014-Aug-18 04:28N 53°21' W 006°13'0 0.0
2014-Aug-18 00:22N 53°21' W 006°13'0 0.0
2014-Aug-17 18:33N 53°21' W 006°13'0 0.0
2014-Aug-17 17:21N 53°21' W 006°13'0 0.0
2014-Aug-17 03:27N 53°21' W 006°13'0 0.0
2014-Aug-16 20:31N 53°21' W 006°13'59 5.8
2014-Aug-16 10:16N 52°25' W 005°41'106 9.7
2014-Aug-15 23:24N 51°22' W 003°24'1012.0
2014-Aug-15 22:33N 51°24' W 003°08'1010.1
2014-Aug-15 21:33N 51°28' W 002°53'6 6.1
2014-Aug-15 20:33N 51°30' W 002°43'0 0.3
2014-Aug-15 19:33N 51°30' W 002°43'0 0.0
2014-Aug-15 18:32N 51°30' W 002°43'0 0.0
2014-Aug-15 17:32N 51°30' W 002°43'0 0.0
2014-Aug-15 16:32N 51°30' W 002°43'0 0.0
2014-Aug-15 15:32N 51°30' W 002°43'0 0.0
2014-Aug-15 14:32N 51°30' W 002°43'0 0.0
2014-Aug-15 13:32N 51°30' W 002°43'0 0.0
2014-Aug-15 12:32N 51°30' W 002°43'0 0.0
2014-Aug-15 11:32N 51°30' W 002°43'0 0.0
2014-Aug-15 10:32N 51°30' W 002°43'0 0.0
2014-Aug-15 09:32N 51°30' W 002°43'0 0.0
2014-Aug-15 08:32N 51°30' W 002°43'0 0.0
2014-Aug-15 07:32N 51°30' W 002°43'0 0.0
2014-Aug-15 06:29N 51°30' W 002°43'0 0.0
2014-Aug-15 05:32N 51°30' W 002°43'0 0.0
2014-Aug-15 04:32N 51°30' W 002°43'0 0.0
2014-Aug-15 03:32N 51°30' W 002°43'0 0.0
2014-Aug-15 02:32N 51°30' W 002°43'0 0.0
2014-Aug-15 01:32N 51°30' W 002°43'0 0.0
2014-Aug-15 00:32N 51°30' W 002°43'0 0.0
2014-Aug-14 23:32N 51°30' W 002°43'0 0.0
2014-Aug-14 22:32N 51°30' W 002°43'0 0.0
2014-Aug-14 21:33N 51°30' W 002°43'1 1.3
2014-Aug-14 20:33N 51°30' W 002°45'1010.4
2014-Aug-14 19:33N 51°26' W 003°00'1312.9
2014-Aug-14 18:33N 51°22' W 003°20'1 1.3
2014-Aug-14 17:33N 51°22' W 003°22'145 8.5
2014-Aug-14 00:33N 51°40' W 007°13'10 9.8
2014-Aug-13 23:33N 51°42' W 007°29'10 9.8
2014-Aug-13 22:33N 51°43' W 007°45'1010.0
2014-Aug-13 21:33N 51°44' W 008°01'10 9.9
2014-Aug-13 20:33N 51°48' W 008°16'8 7.9
2014-Aug-13 19:33N 51°54' W 008°24'2 2.0
2014-Aug-13 18:31N 51°54' W 008°27'0 0.0
2014-Aug-13 17:31N 51°54' W 008°27'0 0.0
2014-Aug-13 16:31N 51°54' W 008°27'0 0.0
2014-Aug-13 15:31N 51°54' W 008°27'0 0.0
2014-Aug-13 14:31N 51°54' W 008°27'0 0.0
2014-Aug-13 13:31N 51°54' W 008°27'0 0.0
2014-Aug-13 12:31N 51°54' W 008°27'0 0.0
2014-Aug-13 11:31N 51°54' W 008°27'0 0.0
2014-Aug-13 10:31N 51°54' W 008°27'0 0.0
2014-Aug-13 09:31N 51°54' W 008°27'0 0.0
2014-Aug-13 08:31N 51°54' W 008°27'0 0.0
2014-Aug-13 07:34N 51°54' W 008°27'0 0.0
2014-Aug-13 06:33N 51°54' W 008°27'0 0.0
2014-Aug-13 05:33N 51°54' W 008°27'0 0.0
2014-Aug-13 04:33N 51°54' W 008°27'0 0.0
2014-Aug-13 03:30N 51°54' W 008°27'0 0.0
2014-Aug-13 02:33N 51°54' W 008°27'0 0.0
2014-Aug-13 01:33N 51°54' W 008°27'0 0.0
2014-Aug-13 00:33N 51°54' W 008°27'0 0.0
2014-Aug-12 23:33N 51°54' W 008°27'0 0.0
2014-Aug-12 22:33N 51°54' W 008°27'  
Track history (hours):
 
Tides and Currents Weather Stations Pressure Air Temp Water Temp Dewpoint Dewpoint Depression Visibility Wind Speed Wind Dir Waves Ship Positions

Arklow Rock

Last reported at 2014-Aug-22 21:33 UTC. Time now 2014-Aug-22 21:39 UTC.
Position N 51°38' E 001°44'.

Length 90 m; draft 5.9 m.

Type: Cargo ship. MMSI: 246002000.

Date/timePositionNaut miles runAvg speedWind from/ knotsBaromVisibWave heightAir tempDewpointWater temp
2014-Aug-22 21:33N 51°38' E 001°44'1111.5
2014-Aug-22 20:33N 51°49' E 001°42'10 9.7
2014-Aug-22 19:33N 51°55' E 001°30'8 8.5
2014-Aug-22 18:34N 51°58' E 001°17'6 6.3
2014-Aug-22 17:33N 52°02' E 001°09'0 0.0
2014-Aug-22 16:33N 52°02' E 001°09'0 0.0
2014-Aug-22 15:33N 52°02' E 001°09'0 0.0
2014-Aug-22 14:33N 52°02' E 001°09'0 0.0
2014-Aug-22 13:33N 52°02' E 001°09'0 0.0
2014-Aug-22 12:33N 52°02' E 001°09'0 0.0
2014-Aug-22 11:33N 52°02' E 001°09'0 0.0
2014-Aug-22 10:33N 52°02' E 001°09'0 0.0
2014-Aug-22 09:33N 52°02' E 001°09'0 0.0
2014-Aug-22 08:33N 52°02' E 001°09'0 0.0
2014-Aug-22 07:33N 52°02' E 001°09'0 0.0
2014-Aug-22 06:32N 52°02' E 001°09'0 0.0
2014-Aug-22 05:32N 52°02' E 001°09'0 0.0
2014-Aug-22 04:32N 52°02' E 001°09'0 0.0
2014-Aug-22 03:32N 52°02' E 001°09'0 0.0
2014-Aug-22 02:32N 52°02' E 001°09'0 0.0
2014-Aug-22 01:26N 52°02' E 001°09'0 0.0
2014-Aug-22 00:32N 52°02' E 001°09'0 0.0
2014-Aug-21 23:32N 52°02' E 001°09'0 0.0
2014-Aug-21 22:29N 52°02' E 001°09'0 0.0
2014-Aug-21 21:29N 52°02' E 001°09'0 0.0
2014-Aug-21 20:32N 52°02' E 001°09'0 0.0
2014-Aug-21 19:29N 52°02' E 001°09'0 0.0
2014-Aug-21 18:32N 52°02' E 001°09'0 0.0
2014-Aug-21 17:32N 52°02' E 001°09'0 0.0
2014-Aug-21 16:32N 52°02' E 001°09'0 0.0
2014-Aug-21 15:32N 52°02' E 001°09'0 0.0
2014-Aug-21 14:32N 52°02' E 001°09'0 0.0
2014-Aug-21 13:29N 52°02' E 001°09'0 0.0
2014-Aug-21 12:32N 52°02' E 001°09'0 0.0
2014-Aug-21 11:32N 52°02' E 001°09'0 0.0
2014-Aug-21 10:32N 52°02' E 001°09'0 0.0
2014-Aug-21 09:32N 52°02' E 001°10'0 0.0
2014-Aug-21 08:29N 52°02' E 001°10'0 0.0
2014-Aug-21 07:29N 52°02' E 001°10'0 0.0
2014-Aug-21 06:32N 52°02' E 001°09'0 0.0
2014-Aug-21 05:32N 52°02' E 001°10'0 0.0
2014-Aug-21 04:32N 52°02' E 001°10'0 0.0
2014-Aug-21 03:32N 52°02' E 001°09'0 0.0
2014-Aug-21 02:32N 52°02' E 001°10'0 0.0
2014-Aug-21 01:32N 52°02' E 001°09'3 2.8
2014-Aug-21 00:33N 52°00' E 001°12'8 7.6
2014-Aug-20 23:33N 51°56' E 001°23'7 7.0
2014-Aug-20 22:33N 51°55' E 001°34'3 3.4
2014-Aug-20 21:33N 51°52' E 001°37'4 4.2
2014-Aug-20 20:33N 51°51' E 001°44'9 8.7
2014-Aug-20 19:33N 51°43' E 001°48'1111.1
2014-Aug-20 18:33N 51°32' E 001°46'1111.5
2014-Aug-20 17:33N 51°21' E 001°41'1010.4
2014-Aug-20 16:34N 51°11' E 001°37'6 6.1
2014-Aug-20 15:33N 51°05' E 001°37'4310.7
2014-Aug-20 11:33N 50°31' E 000°54'1211.8
2014-Aug-20 10:33N 50°28' E 000°36'1211.7
2014-Aug-20 09:32N 50°25' E 000°18'4811.1
2014-Aug-20 05:12N 50°30' W 000°57'812.6
2014-Aug-20 04:33N 50°29' W 001°10'208 7.6
2014-Aug-19 01:03N 52°17' W 005°55'611.0
2014-Aug-19 00:32N 52°22' W 005°56'1111.5
2014-Aug-18 23:33N 52°34' W 005°59'48 2.5
2014-Aug-18 04:28N 53°21' W 006°13'0 0.0
2014-Aug-18 00:22N 53°21' W 006°13'0 0.0
2014-Aug-17 18:33N 53°21' W 006°13'0 0.0
2014-Aug-17 17:21N 53°21' W 006°13'0 0.0
2014-Aug-17 03:27N 53°21' W 006°13'0 0.0
2014-Aug-16 20:31N 53°21' W 006°13'59 5.8
2014-Aug-16 10:16N 52°25' W 005°41'106 9.7
2014-Aug-15 23:24N 51°22' W 003°24'1012.0
2014-Aug-15 22:33N 51°24' W 003°08'1010.1
2014-Aug-15 21:33N 51°28' W 002°53'6 6.1
2014-Aug-15 20:33N 51°30' W 002°43'0 0.3
2014-Aug-15 19:33N 51°30' W 002°43'0 0.0
2014-Aug-15 18:32N 51°30' W 002°43'0 0.0
2014-Aug-15 17:32N 51°30' W 002°43'0 0.0
2014-Aug-15 16:32N 51°30' W 002°43'0 0.0
2014-Aug-15 15:32N 51°30' W 002°43'0 0.0
2014-Aug-15 14:32N 51°30' W 002°43'0 0.0
2014-Aug-15 13:32N 51°30' W 002°43'0 0.0
2014-Aug-15 12:32N 51°30' W 002°43'0 0.0
2014-Aug-15 11:32N 51°30' W 002°43'0 0.0
2014-Aug-15 10:32N 51°30' W 002°43'0 0.0
2014-Aug-15 09:32N 51°30' W 002°43'0 0.0
2014-Aug-15 08:32N 51°30' W 002°43'0 0.0
2014-Aug-15 07:32N 51°30' W 002°43'0 0.0
2014-Aug-15 06:29N 51°30' W 002°43'0 0.0
2014-Aug-15 05:32N 51°30' W 002°43'0 0.0
2014-Aug-15 04:32N 51°30' W 002°43'0 0.0
2014-Aug-15 03:32N 51°30' W 002°43'0 0.0
2014-Aug-15 02:32N 51°30' W 002°43'0 0.0
2014-Aug-15 01:32N 51°30' W 002°43'0 0.0
2014-Aug-15 00:32N 51°30' W 002°43'0 0.0
2014-Aug-14 23:32N 51°30' W 002°43'0 0.0
2014-Aug-14 22:32N 51°30' W 002°43'0 0.0
2014-Aug-14 21:33N 51°30' W 002°43'1 1.3
2014-Aug-14 20:33N 51°30' W 002°45'1010.4
2014-Aug-14 19:33N 51°26' W 003°00'1312.9
2014-Aug-14 18:33N 51°22' W 003°20'1 1.3
2014-Aug-14 17:33N 51°22' W 003°22'145 8.5
2014-Aug-14 00:33N 51°40' W 007°13'10 9.8
2014-Aug-13 23:33N 51°42' W 007°29'10 9.8
2014-Aug-13 22:33N 51°43' W 007°45'1010.0
2014-Aug-13 21:33N 51°44' W 008°01'10 9.9
2014-Aug-13 20:33N 51°48' W 008°16'8 7.9
2014-Aug-13 19:33N 51°54' W 008°24'2 2.0
2014-Aug-13 18:31N 51°54' W 008°27'0 0.0
2014-Aug-13 17:31N 51°54' W 008°27'0 0.0
2014-Aug-13 16:31N 51°54' W 008°27'0 0.0
2014-Aug-13 15:31N 51°54' W 008°27'0 0.0
2014-Aug-13 14:31N 51°54' W 008°27'0 0.0
2014-Aug-13 13:31N 51°54' W 008°27'0 0.0
2014-Aug-13 12:31N 51°54' W 008°27'0 0.0
2014-Aug-13 11:31N 51°54' W 008°27'0 0.0
2014-Aug-13 10:31N 51°54' W 008°27'0 0.0
2014-Aug-13 09:31N 51°54' W 008°27'0 0.0
2014-Aug-13 08:31N 51°54' W 008°27'0 0.0
2014-Aug-13 07:34N 51°54' W 008°27'0 0.0
2014-Aug-13 06:33N 51°54' W 008°27'0 0.0
2014-Aug-13 05:33N 51°54' W 008°27'0 0.0
2014-Aug-13 04:33N 51°54' W 008°27'0 0.0
2014-Aug-13 03:30N 51°54' W 008°27'0 0.0
2014-Aug-13 02:33N 51°54' W 008°27'0 0.0
2014-Aug-13 01:33N 51°54' W 008°27'0 0.0
2014-Aug-13 00:33N 51°54' W 008°27'0 0.0
2014-Aug-12 23:33N 51°54' W 008°27'0 0.0
2014-Aug-12 22:33N 51°54' W 008°27'  

Dump ship's entire track history